ICESAT-2

Last updated on Tue Oct 15 2024 00:02:25 GMT+0000 (Coordinated Universal Time)

1 43613U 18070A 24288.49922934 .00006262 00000+0 22712-3 0 9991 2 43613 91.9988 126.7215 0006620 340.4377 19.6617 15.28297992339198
UTC large
Height (km)
Speed (km/s)
/
Latitude / Longitude
Inclination (degrees)
Orbital Period (minutes)
Azimuth
Elevation
Range (km)
Doppler Factor

Next 0 passes for location: London (51.5072 / 0.1276)

Sorry there are no passes over London.